FW8095 Weather Reports


Display with metric or nautical units.
time (UTC)temp
F
wind
direction
speed
MPH
gust
MPH
rain 1hr
in
rain 24hr
in
rain mn
in
humidity
%
barometer
mb
20260504081539 48 0 0.0 0.0 0.00 0.00 0.00 90 1017.7
20260504044537 52 0 0.0 0.0 0.00 0.00 0.00 82 1018.9
20260504043034 53 0 0.0 0.0 0.00 0.00 0.00 81 1019.1
20260504041535 53 0 0.0 0.0 0.00 0.00 0.00 79 1019.1
20260504040038 54 0 0.0 0.0 0.00 0.00 0.00 77 1019.2
20260504034537 54 0 0.0 0.0 0.00 0.00 0.00 76 1019.3
20260504033036 55 0 0.0 0.0 0.00 0.00 0.00 74 1019.5
20260504031548 56 0 0.0 0.0 0.00 0.00 0.00 73 1019.4
20260504030043 56 0 0.0 0.0 0.00 0.00 0.00 72 1019.4
20260504024542 57 0 0.0 0.0 0.00 0.00 0.00 69 1019.2
20260504023038 57 0 0.0 0.0 0.00 0.00 0.00 70 1019.2
20260504021534 58 0 0.0 0.0 0.00 0.00 0.00 65 1019.0
20260504020040 59 0 0.0 0.0 0.00 0.00 0.00 62 1018.9
20260504014543 59 0 0.0 0.0 0.00 0.00 0.00 61 1019.1
20260504013043 60 0 0.0 0.0 0.00 0.00 0.00 60 1018.7
20260504011540 61 0 0.0 0.0 0.00 0.00 0.00 58 1018.7
20260504010036 61 0 0.0 0.0 0.00 0.00 0.00 57 1018.6
20260504004534 61 0 0.0 0.0 0.00 0.00 0.00 57 1018.5
20260504003040 61 0 0.0 0.0 0.00 0.00 0.00 59 1018.4
20260504001548 62 0 0.0 0.0 0.00 0.00 0.00 60 1018.2
20260504000037 63 0 0.0 0.0 0.00 0.00 0.00 57 1018.3
20260503234558 64 0 0.0 0.0 0.00 0.00 0.00 57 1018.1
20260503233046 65 0 0.0 0.0 0.00 0.00 0.00 55 1018.3
20260503231540 66 0 0.0 1.0 0.00 0.00 0.00 49 1018.2
20260503230038 67 0 0.0 1.0 0.00 0.00 0.00 50 1018.3
20260503224536 67 203 0.0 2.0 0.00 0.00 0.00 45 1018.3
20260503223042 67 151 0.0 2.0 0.00 0.00 0.00 44 1018.2
20260503221548 68 0 0.0 1.0 0.00 0.00 0.00 46 1018.4
20260503220040 68 127 0.0 2.0 0.00 0.00 0.00 43 1018.5
20260503214535 68 0 0.0 2.0 0.00 0.00 0.00 45 1018.6
20260503213043 69 110 0.0 6.0 0.00 0.00 0.00 44 1018.7
20260503211541 69 289 0.0 4.0 0.00 0.00 0.00 43 1018.8
20260503210040 70 110 1.0 3.0 0.00 0.00 0.00 40 1019.0
20260503204536 70 179 1.0 6.0 0.00 0.00 0.00 41 1019.3
20260503203053 71 0 0.0 4.0 0.00 0.00 0.00 44 1019.5
20260503201541 72 309 1.0 6.0 0.00 0.00 0.00 39 1019.7
20260503200039 72 292 1.0 7.0 0.00 0.00 0.00 41 1019.9
20260503194540 72 47 1.0 5.0 0.00 0.00 0.00 40 1020.3
20260503193037 73 245 1.0 5.0 0.00 0.00 0.00 40 1020.4
20260503191544 73 113 1.0 4.0 0.00 0.00 0.00 39 1020.7
20260503190035 73 78 2.0 5.0 0.00 0.00 0.00 39 1021.0
20260503184532 72 288 1.0 6.0 0.00 0.00 0.00 39 1021.3
20260503183035 73 101 3.0 9.0 0.00 0.00 0.00 39 1021.3
20260503181534 72 317 1.0 6.0 0.00 0.00 0.00 38 1021.6
20260503180050 73 223 1.0 6.0 0.00 0.00 0.00 38 1021.7
20260503174540 73 146 1.0 6.0 0.00 0.00 0.00 40 1021.7
20260503173039 71 106 1.0 7.0 0.00 0.00 0.00 43 1021.8
20260503171544 70 92 2.0 6.0 0.00 0.00 0.00 42 1022.2